Torna al catalogo

LYRA-4

AttivoScienzaPO
NORAD 64691·PAYLOAD·🇦🇺 Australia

Lanciato Jun 28, 2025 da Rocket Lab Launch Complex 1

Loading…

Prossimi Passaggi (prossime 24 ore)

TLE

AggiornatoSource: Space-Track

Epoca: Sep 14, 2026, 05:33 UTC

1 64691U 25140A   26257.23184202  .00000997  00000-0  16093-3 0  9999
2 64691  96.0100 354.5247 0010646 267.4098  92.5896 14.72684455 65160

Traccia LYRA-4 in tempo reale con AllMySat

Download on the App Store